Tracking 30509 objects as of 21-May-2025
HD Live streaming from Space Station
objects crossing your sky now

STARLINK-5467

Track STARLINK-5467 now!
10-day predictions
STARLINK-5467 is classified as:


NORAD ID: 55660
Int'l Code: 2023-021AJ
Perigee: 576.4 km
Apogee: 581.9 km
Inclination: 70.0 °
Period: 96.1 minutes
Semi major axis: 6950 km
RCS: Unknown
Launch date: February 17, 2023
Source: United States (US)
Launch site: AIR FORCE WESTERN TEST RANGE (AFWTR)
Your satellite tracking list
Your tracking list is empty




NASA's NSSDC Master Catalog

Two Line Element Set (TLE):
1 55660U 23021AJ  25140.51308180  .00000348  00000-0  36962-4 0  9993
2 55660  69.9990 183.4986 0003959 268.2520  91.8185 14.98330541125374
Source of the keplerian elements: AFSPC